Date String (YYYY-MM-DD hh:mm:ss) UTC,Instrument flags,Ambient pressure (hPa),Sample flow (lpm),Bypass flow (lpm),Sample temperature (°C),Ambient temperature (°C),ASC tube jacket temperature (°C),LED temperature (°C),Box temperature (°C),Sample RH (%),Span deviation,Mass concentration (μg/m³),Mass concentration (μg/m³),Mass concentration (μg/m³)
DateTimeUTC,F1_M11,P_M11,Q1_M11,Q2_M11,T1_M11,T2_M11,T3_M11,T4_M11,T5_M11,U1_M11,ZSPAN_M11,X0_M11,X2_M11,X1_M11
2022-01-18 18:00:00,,0820.0,5.01,0.00,22.6,21.8,00.0,31.7,24.4,03.6,0000.0,0001.31,0000.39,0000.32
2022-01-18 18:01:00,,0820.0,4.98,0.00,22.6,21.8,00.0,31.7,24.4,03.7,0000.0,0001.41,0000.41,0000.33
2022-01-18 18:02:00,,0820.0,5.01,0.00,22.6,21.8,00.0,31.7,24.3,03.4,0000.0,0001.33,0000.40,0000.33
2022-01-18 18:03:00,,0820.0,4.99,0.00,22.6,21.8,00.0,31.7,24.3,03.5,0000.0,0001.41,0000.42,0000.33
2022-01-18 18:04:00,,0819.9,5.02,0.00,22.6,21.8,00.0,31.7,24.3,03.7,0000.0,0001.47,0000.43,0000.33
2022-01-18 18:05:00,,0820.0,5.01,0.00,22.6,21.9,00.0,31.7,24.4,03.7,0000.0,0001.46,0000.42,0000.32
2022-01-18 18:06:00,,0820.0,4.98,0.00,22.6,21.9,00.0,31.7,24.4,03.9,0000.0,0001.47,0000.42,0000.32
2022-01-18 18:07:00,,0819.9,5.00,0.00,22.6,21.9,00.0,31.7,24.4,03.8,0000.0,0001.53,0000.44,0000.32
2022-01-18 18:08:00,,0820.0,5.00,0.00,22.6,21.8,00.0,31.7,24.4,03.5,0000.0,0001.53,0000.44,0000.31
2022-01-18 18:09:00,,0819.9,5.00,0.00,22.6,21.9,00.0,31.7,24.4,03.7,0000.0,0001.54,0000.44,0000.31
2022-01-18 18:10:00,,0820.0,5.00,0.00,22.6,21.9,00.0,31.7,24.4,03.7,0000.0,0001.37,0000.43,0000.31
2022-01-18 18:11:00,,0819.9,4.98,0.00,22.6,21.9,00.0,31.7,24.4,03.7,0000.0,0000.79,0000.42,0000.31
2022-01-18 18:12:00,,0819.9,5.02,0.00,22.6,21.9,00.0,31.7,24.4,03.6,0000.0,0000.69,0000.40,0000.31
2022-01-18 18:13:00,,0819.9,4.99,0.00,22.7,21.9,00.0,31.7,24.4,03.5,0000.0,0000.66,0000.39,0000.31
2022-01-18 18:14:00,,0819.9,4.99,0.00,22.7,21.9,00.0,31.7,24.4,03.6,0000.0,0000.55,0000.37,0000.31
2022-01-18 18:15:00,,0819.9,5.02,0.00,22.7,21.9,00.0,31.7,24.4,03.7,0000.0,0000.54,0000.38,0000.31
2022-01-18 18:16:00,,0819.9,4.99,0.00,22.6,21.9,00.0,31.7,24.4,03.4,0000.0,0000.56,0000.38,0000.31
2022-01-18 18:17:00,,0819.9,5.01,0.00,22.6,21.9,00.0,31.7,24.4,03.4,0000.0,0000.55,0000.38,0000.31
2022-01-18 18:18:00,,0819.8,5.00,0.00,22.6,21.9,00.0,31.7,24.3,03.4,0000.0,0000.50,0000.37,0000.32
2022-01-18 18:19:00,,0819.9,5.00,0.00,22.6,21.9,00.0,31.7,24.4,03.5,0000.0,0000.49,0000.37,0000.32
2022-01-18 18:20:00,,0819.9,5.00,0.00,22.6,21.8,00.0,31.7,24.3,03.5,0000.0,0000.52,0000.36,0000.32
2022-01-18 18:21:00,,0819.9,4.99,0.00,22.6,21.8,00.0,31.7,24.3,03.4,0000.0,0000.60,0000.36,0000.32
2022-01-18 18:22:00,,0819.9,5.00,0.00,22.6,21.8,00.0,31.7,24.2,03.2,0000.0,0000.63,0000.37,0000.32
2022-01-18 18:23:00,,0819.9,5.01,0.00,22.6,21.8,00.0,31.7,24.2,03.3,0000.0,0000.65,0000.37,0000.32
2022-01-18 18:24:00,,0819.9,5.00,0.00,22.6,21.7,00.0,31.7,24.2,03.6,0000.0,0000.64,0000.37,0000.32
2022-01-18 18:25:00,,0819.9,5.00,0.00,22.6,21.7,00.0,31.7,24.3,03.4,0000.0,0000.62,0000.36,0000.32
2022-01-18 18:26:00,,0819.8,5.00,0.00,22.6,21.7,00.0,31.7,24.2,03.4,0000.0,0000.59,0000.35,0000.32
2022-01-18 18:27:00,,0819.7,4.98,0.00,22.6,21.8,00.0,31.7,24.3,03.4,0000.0,0000.61,0000.36,0000.32
2022-01-18 18:28:00,,0819.8,5.01,0.00,22.6,21.7,00.0,31.7,24.3,03.5,0000.0,0000.71,0000.39,0000.33
2022-01-18 18:29:00,,0819.7,5.00,0.00,22.6,21.7,00.0,31.7,24.3,03.8,0000.0,0001.00,0000.42,0000.34
2022-01-18 18:30:00,,0819.7,5.01,0.00,22.6,21.7,00.0,31.7,24.2,03.6,0000.0,0001.07,0000.42,0000.34
2022-01-18 18:31:00,,0819.7,5.00,0.00,22.6,21.7,00.0,31.6,24.2,03.7,0000.0,0001.20,0000.43,0000.34
2022-01-18 18:32:00,,0819.7,5.00,0.00,22.6,21.7,00.0,31.6,24.1,03.6,0000.0,0001.11,0000.43,0000.34
2022-01-18 18:33:00,,0819.7,5.00,0.00,22.6,21.6,00.0,31.6,24.1,03.9,0000.0,0001.13,0000.44,0000.34
2022-01-18 18:34:00,,0819.6,4.99,0.00,22.6,21.7,00.0,31.6,24.2,04.1,0000.0,0001.13,0000.45,0000.35
2022-01-18 18:35:00,,0819.6,5.00,0.00,22.6,21.7,00.0,31.6,24.2,04.0,0000.0,0001.19,0000.46,0000.35
2022-01-18 18:36:00,,0819.5,5.02,0.00,22.6,21.7,00.0,31.6,24.2,03.8,0000.0,0001.79,0000.50,0000.37
2022-01-18 18:37:00,,0819.5,4.99,0.00,22.6,21.7,00.0,31.6,24.1,03.8,0000.0,0001.86,0000.54,0000.37
2022-01-18 18:38:00,,0819.6,5.01,0.00,22.6,21.7,00.0,31.6,24.1,03.7,0000.0,0001.82,0000.53,0000.38
2022-01-18 18:39:00,,0819.7,4.98,0.00,22.6,21.7,00.0,31.6,24.2,03.5,0000.0,0001.74,0000.51,0000.37
2022-01-18 18:40:00,,0819.6,5.00,0.00,22.5,21.7,00.0,31.6,24.2,03.7,0000.0,0001.51,0000.48,0000.37
2022-01-18 18:41:00,,0819.5,5.00,0.00,22.5,21.6,00.0,31.6,24.1,03.2,0000.0,0001.38,0000.47,0000.36
2022-01-18 18:42:00,,0819.6,4.99,0.00,22.5,21.6,00.0,31.6,24.1,03.2,0000.0,0001.24,0000.46,0000.36
2022-01-18 18:43:00,,0819.5,5.00,0.00,22.5,21.6,00.0,31.6,24.1,03.3,0000.0,0001.23,0000.46,0000.35
2022-01-18 18:44:00,,0819.5,5.00,0.00,22.5,21.6,00.0,31.6,24.1,03.5,0000.0,0001.21,0000.45,0000.36
2022-01-18 18:45:00,,0819.5,5.00,0.00,22.5,21.6,00.0,31.6,24.1,03.5,0000.0,0001.81,0000.44,0000.35
2022-01-18 18:46:00,,0819.4,5.02,0.00,22.5,21.6,00.0,31.6,24.1,03.6,0000.0,0001.88,0000.43,0000.35
2022-01-18 18:47:00,,0819.4,4.99,0.00,22.5,21.6,00.0,31.6,24.1,03.6,0000.0,0001.71,0000.39,0000.33
2022-01-18 18:48:00,,0819.4,5.01,0.00,22.5,21.6,00.0,31.6,24.1,03.7,0000.0,0001.96,0000.36,0000.32
2022-01-18 18:49:00,,0819.3,5.00,0.00,22.5,21.6,00.0,31.6,24.2,03.6,0000.0,0002.00,0000.37,0000.31
2022-01-18 18:50:00,,0819.3,5.00,0.00,22.5,21.7,00.0,31.6,24.1,03.5,0000.0,0002.06,0000.38,0000.31
2022-01-18 18:51:00,,0819.2,5.00,0.00,22.5,21.7,00.0,31.6,24.1,03.6,0000.0,0002.09,0000.39,0000.31
2022-01-18 18:52:00,,0819.2,5.01,0.00,22.5,21.6,00.0,31.5,24.1,03.6,0000.0,0002.28,0000.39,0000.31
2022-01-18 18:53:00,,0819.2,4.99,0.00,22.5,21.6,00.0,31.5,24.1,03.8,0000.0,0002.29,0000.39,0000.31
2022-01-18 18:54:00,,0819.2,5.01,0.00,22.5,21.7,00.0,31.5,24.1,03.7,0000.0,0002.28,0000.39,0000.31
2022-01-18 18:55:00,,0819.2,4.99,0.00,22.5,21.7,00.0,31.5,24.1,03.9,0000.0,0002.27,0000.38,0000.31
2022-01-18 18:56:00,,0819.2,5.01,0.00,22.5,21.7,00.0,31.5,24.1,03.8,0000.0,0001.58,0000.39,0000.31
2022-01-18 18:57:00,,0819.2,4.98,0.00,22.5,21.7,00.0,31.5,24.1,03.7,0000.0,0001.56,0000.39,0000.32
2022-01-18 18:58:00,,0819.2,5.00,0.00,22.5,21.7,00.0,31.5,24.1,03.7,0000.0,0001.32,0000.40,0000.32
2022-01-18 18:59:00,,0819.3,5.01,0.00,22.5,21.6,00.0,31.5,24.1,03.6,0000.0,0000.89,0000.40,0000.33
